www.pogodaiklimat.ru

Погода и климат >> Архив погоды >> Корея >> Вонджу


ПОГОДА в Вонджу

  • Прогноз погоды в Вонджу
  • Монитор погоды в Вонджу

АРХИВ ПОГОДЫ в Вонджу

Время (UTC), дата Ветер
(напр.,м/с)
 
Видим.   Явления Облачность Т
(С)
Тd
(С)
f
(%)
Тe
(С)
Тes
(С)
Комфортность P
(гПа)
Po
(гПа)
Тmin
(С)
Tmax
(С)
R
(мм)
R24
(мм)
S
(см)
00 12.07 ЮЗ 2 12 км 4/4 300 м
[]
+20.7 +17.1 80 +25 +31 комфорт 1008.0 990.8 +19.2 0.0
03 12.07 Ю 2 14 км 10// 600 м
[]
+22.9 +16.6 68 +28 +28 душно 1006.8 989.8
06 12.07 Ю 2 18 км 8/8 1000 м
[]
+26.7 +16.0 52 +30 +33 душно 1004.6 987.8
09 12.07 ЮЗ 2 20 км 9/9 2000 м
[]
+26.4 +15.1 50 +29 +29 жарко 1003.9 987.1
12 12.07 ЮЗ 2 20 км 8/8 1000 м
[]
+24.2 +16.4 62 +28 +28 душно 1004.8 988.0 +27.9 0.0
15 12.07 ЮЗ 1 14 км 9/9 600 м
[]
+23.0 +16.9 69 +28 +28 душно 1005.2 988.2
18 12.07 ЮЗ 1 13 км 8/4 1000 м
[]
+21.8 +17.5 77 +26 +26 душно 1004.7 987.6
21 12.07 штиль 0 8000 м 8/1 600 м
[]
+20.5 +17.5 83 +24 +24 комфорт 1004.0 986.8
00 13.07 С 2 9000 м 9/9 600 м
[]
+21.9 +17.2 75 +26 +27 душно 1003.7 986.7 +20.3 0.0
03 13.07 З 1 7000 м 9/1
[]
+25.2 +15.7 56 +28 +40 жарко 1001.9 985.0
06 13.07 Ю 1 13 км 8/0
[]
+26.8 +15.4 50 +30 +40 душно 999.8 983.1
09 13.07 ЮЗ 2 18 км 6/6
[]
+27.7 +16.0 49 +31 +32 душно 998.3 981.7
12 13.07 Ю 2 11 км 3/0
[]
+24.6 +16.8 62 +28 +28 душно 1000.4 983.7 +29.2 0.0
15 13.07 штиль 0 6000 м 5/0
[]
+22.6 +17.7 74 +28 +28 душно 1001.4 984.5
18 13.07 штиль 0 4000 м 6/0
[]
+21.2 +17.9 81 +25 +25 комфорт 1001.4 984.3
21 13.07 С 1 3000 м 1/0
[]
+21.1 +18.2 84 +25 +26 комфорт 1001.6 984.5
00 14.07 СЗ 2 3000 м 5/5 300 м
[]
+23.1 +18.2 74 +29 +34 очень
душно
1002.2 985.3 +20.8 0.0
03 14.07 З 1 6000 м 5/1 600 м
[]
+27.1 +17.8 57 +32 +48 очень
душно
1001.8 985.1
06 14.07 З 2 12 км 8/0
[]
+30.0 +16.4 44 +33 +42 душно 1000.4 983.8
09 14.07 ЮВ 3 18 км 6/6 1500 м
[]
+24.9 +18.3 67 +29 +30 душно 1001.5 984.6
12 14.07 В 4 11 км 4/4 1000 м
[]
+23.2 +18.9 77 +29 +29 душно 1003.9 987.0 +30.9 7
15 14.07 11 км н/о +22.9 +19.2 80 +29 +29 очень
душно
1005.2 988.2
18 14.07 7000 м 8/8 600 м
[]
+22.2 +19.9 87 +28 +28 душно 1005.2 988.2
21 14.07 С 1 5000 м 9/5 600 м
[]
+21.8 +19.7 88 +27 +27 душно 1006.2 989.1
00 15.07 ЮВ 3 18 км ?/? +22.9 +17.5 72 +28 +28 душно 1007.3 990.3 +21.7 0.0
03 15.07 СВ 2 13 км 9/3 300 м
[]
+23.7 +19.2 76 +29 +37 душно 1007.6 990.7
06 15.07 В 1 15 км 8/8 1500 м
[]
+25.8 +19.1 67 +31 +34 очень
душно
1006.3 989.4
09 15.07 СЗ 2 6000 м 10/10 200 м
[]
+21.5 +19.6 89 +27 +27 душно 1007.6 990.4
12 15.07 штиль 0 18 км 8/0
[]
+21.0 +18.9 88 +25 +25 комфорт 1009.3 992.1 +26.0 29
15 15.07 штиль 0 7000 м 8/5 200 м
[]
+20.4 +18.6 89 +24 +24 комфорт 1010.1 992.8
18 15.07 СВ 1 7000 м 8/8 200 м
[]
+20.0 +18.4 91 +24 +24 комфорт 1009.9 992.6
21 15.07 7000 м н/о +20.2 +18.5 90 +25 +25 комфорт 1011.3 994.0
00 16.07 11 км 8/8 200 м
[]
+22.3 +18.0 77 1011.6 994.5 +19.8 0.0
03 16.07 З 1 13 км 9/1 600 м
[]
+26.7 +17.7 58 +31 +43 душно 1010.8 993.9
06 16.07 ЮЗ 1 18 км 8/0
[]
+28.7 +16.9 49 +32 +43 душно 1009.4 992.7
09 16.07 В 3 10 км 10/9 1000 м
[]
+25.2 +19.3 70 +30 +31 душно 1009.8 992.8
12 16.07 9000 м 8/8 1000 м
[]
+23.8 +19.3 76 1010.9 993.9 +29.9 0.0
15 16.07 штиль 0 12 км 6/1 1000 м
[]
+23.1 +19.4 80 +30 +30 очень
душно
1011.9 994.8
18 16.07 штиль 0 2700 м 8/8 1000 м
[]
+22.0 +20.2 90 +28 +28 душно 1012.2 995.0 0.3
21 16.07 СВ 1 4500 м 9/5 600 м
[]
+21.5 +19.7 89 +27 +27 душно 1012.6 995.4
00 17.07 СВ 2 11 км 6/6 300 м
[]
+25.0 +19.5 72 +30 +34 душно 1012.1 995.0 +21.4 4
03 17.07 З 1 10 км 8/5 600 м
[]
+27.0 +19.6 64 +33 +41 очень
душно
1011.4 994.5
06 17.07 13 км ?/? +28.5 +20.2 61 1010.1 993.3
09 17.07 З 1 18 км 9/3
[]
+28.2 +18.2 55 +33 +34 очень
душно
1009.2 992.4
12 17.07 В 2 16 км ?/? +25.5 +19.3 69 +31 +31 очень
душно
1010.4 993.4 +29.3 0.1
15 17.07 12 км ?/? +24.5 +19.5 74 1010.4 993.5
18 17.07 СЗ 1 13 км ?/? +23.8 +19.3 76 +29 +29 душно 1010.2 993.2
21 17.07 штиль 0 10 км 10/9 1000 м
[]
+22.9 +19.0 79 +29 +29 очень
душно
1010.6 993.5
00 18.07 ЮЗ 1 16 км 8/8 600 м
[]
+25.1 +18.2 66 +30 +32 душно 1009.9 992.9 +22.6 0.0
03 18.07 З 1 14 км 8/4 600 м
[]
+27.5 +18.4 58 +32 +42 очень
душно
1008.5 991.7
06 18.07 З 1 15 км 8/8 1000 м
[]
+29.7 +18.4 51 +35 +38 очень
душно
1007.0 990.3
09 18.07 З 2 17 км 6/0
[]
+29.6 +18.6 52 +35 +36 очень
душно
1006.1 989.5
12 18.07 Ю 3 20 км 8/0
[]
+26.6 +17.6 58 +31 +31 душно 1007.7 990.8 +30.8 0.0
15 18.07 В 1 20 км 3/0
[]
+23.8 +18.4 72 +28 +28 душно 1008.7 991.7
18 18.07 штиль 0 20 км 5/5 600 м
[]
+22.7 +18.8 79 +29 +29 очень
душно
1007.7 990.7
21 18.07 штиль 0 11 км 3/3 2000 м
[]
+22.3 +19.2 83 +28 +28 душно 1008.1 991.0

 

Местоположение метеостанции Вонджу (Корея): широта 37.33 долгота 127.95 высота над уровнем моря 151 м.

В архиве по умолчанию представлена погода в Вонджу за последнюю неделю. Архивные данные за месяц целиком и за предыдущие месяцы, начиная с января 2011 года, Вы можете получить, выбрав интересующий диапазон дат из раскрывающегося списка и нажав кнопку "Ввод!".


*Определитесь, кто Вы:
робот инопланетянин человек

Внимание! Время в таблицах - всемирное. Для получения местного времени необходимо прибавить поправку, которая равна 9 ч.

Смотрите также архив погоды в соседних городах и на ближайших метеорологических станциях:

Погода в Ичхоне (Корея) (42 км)
Погода в Йонволе (Корея) (48 км)
Погода в Чунчоне (Корея) (65 км)
Погода в Чхунчхоне (Корея) (66 км)
Погода в Букчунчеоне (Корея) (81 км)
Погода на Перевале Daegwallyeong (Корея) (81 км)
Погода в Сувоне (Корея) (86 км)
Погода в Чхонджу (Корея) (90 км)
Погода в Сеуле (Корея) (91 км)
Погода на Базе Camp Humphreys (Корея) (92 км)

Пояснения к столбцам:

Ветер - указаны скорость ветра в м/с - средняя за 10 мин, порывы в срок и между сроками (в фигурных скобках) и направление, откуда дует ветер: С - северный, СВ - северо-восточный, В - восточный, ЮВ - юго-восточный, Ю - южный, ЮЗ - юго-западный, З - западный, СЗ - северо-западный.
Видимость - горизонтальная дальность видимости в метрах или километрах. При видимости от 1 до 10 км при отсутствии осадков обычно наблюдается дымка, при ухудшении видимости до 1 км и менее - туман. В сухую погоду видимость может ухудшаться дымом, пылью или мглою.
Явления - указаны атмосферные явления, наблюдавшиеся в срок или в последний час перед сроком; фигурными скобками обозначены явления, наблюдавшиеся между сроками (за 1-3 часа до срока); квадратными скобками обозначены град или гололедные отложения с указанием их диаметра в мм.
Облачность - указаны через наклонную черту общая и нижняя облачность в баллах и высота нижней границы облаков в метрах; квадратными скобками обозначены формы облаков: Ci - перистые, Cs - перисто-слоистые, Cc - перисто-кучевые, Ac - высококучевые, As - высокослоистые, Sc - слоисто-кучевые, Ns - слоисто-дождевые, Cu - кучевые, Cb - кучево-дождевые. Подробнее классификацию облаков см. в Атласе облаков (PDF).
T - Температура воздуха - температура, измеренная на высоте 2 м над землей.
Td - Температура точки росы - температура, при понижении до которой содержащийся в воздухе водяной пар достигнет насыщения.
f - Относительная влажность воздуха - влажноcть воздуха, измеренная на высоте 2 м над землей.
Te - Эффективная температура - температура, которую ощущает одетый по сезону человек в тени. Характеристика душности погоды. При расчете учитывается влияние влажности воздуха и скорости ветра на теплоощущения человека.
Tes - Эффективная температура на солнце - температура, которую ощущает человек, с поправкой на солнечный нагрев. Характеристика знойности погоды. Зависит от высоты солнца над горизонтом, облачности и скорости ветра. Ночью, в пасмурную погоду, а также при ветре 12 м/с и более поправка равна нулю.
P - Атмосферное давление - приведенное к уровню моря атмосферное давление.
Po - Атмосферное давление - измеренное на уровне метеостанции атмосферное давление.
Tmin - Минимальная температура - минимум температуры воздуха на высоте 2 м над землей.
Tmax - Максимальная температура - максимум температуры воздуха на высоте 2 м над землей.
R - Количество осадков - Количество выпавших осадков за период времени, мм. При наведении курсора мыши на число - период времени, за который выпало указанное количество осадков.
R24 - Количество осадков - Количество выпавших осадков за 24 часа, мм.
S - Снежный покров - Высота снежного покрова, см. При наведении курсора мыши на число - состояние снежного покрова и степень покрытия местности в баллах.